Location: Unspecified
(0.0000°N, 0.0000°E)
Time: 02:34:49
(UTC+00:00)

UNISAT 5 - Pass Details

Date: 16 June 2023
Orbit: 572 x 612 km, 97.5° (Epoch: 01 October)

Event Time Altitude Azimuth Distance (km) Brightness Sun altitude
Rises 04:57:49 0° 343° (NNW) 2,762 ? -14.4°
Reaches altitude 10° 05:00:33 10° 323° (NW) 1,868 ? -13.8°
Maximum altitude 05:03:12 17° 281° (WNW) 1,472 ? -13.2°
Enters shadow 05:03:38 17° 273° (W) 1,484 ? -13.1°
